| time (UTC) | temp C | wind direction | speed KPH | gust KPH | rain 1hr cm | rain 24hr cm | rain mn cm | humidity % | barometer mb |
| 20260507181509 | 18 | 360 | 4.8 | 14.5 | 0.00 | 0.00 | 0.00 | 79 | 1015.8 |
| 20260507180010 | 18 | 294 | 4.8 | 14.5 | 0.00 | 0.00 | 0.00 | 78 | 1015.9 |
| 20260507174506 | 18 | 253 | 3.2 | 11.3 | 0.00 | 0.00 | 0.00 | 78 | 1016.0 |
| 20260507173013 | 18 | 360 | 6.4 | 11.3 | 0.00 | 0.00 | 0.00 | 79 | 1016.0 |
| 20260507171604 | 17 | 360 | 3.2 | 9.7 | 0.00 | 0.00 | 0.00 | 81 | 1016.0 |
| 20260507170058 | 17 | 360 | 8.0 | 11.3 | 0.00 | 0.00 | 0.00 | 82 | 1016.1 |
| 20260507164605 | 17 | 360 | 1.6 | 11.3 | 0.00 | 0.00 | 0.00 | 83 | 1016.2 |
| 20260507163053 | 17 | 360 | 6.4 | 9.7 | 0.00 | 0.00 | 0.00 | 83 | 1016.3 |
| 20260507161606 | 17 | 360 | 6.4 | 9.7 | 0.00 | 0.00 | 0.00 | 84 | 1016.3 |
| 20260507160104 | 16 | 360 | 1.6 | 8.0 | 0.00 | 0.00 | 0.00 | 84 | 1016.3 |
| 20260507154549 | 16 | 360 | 4.8 | 9.7 | 0.00 | 0.00 | 0.00 | 84 | 1016.4 |
| 20260507153048 | 16 | 360 | 3.2 | 9.7 | 0.00 | 0.00 | 0.00 | 85 | 1016.3 |
| 20260507151546 | 16 | 360 | 1.6 | 4.8 | 0.00 | 0.00 | 0.00 | 85 | 1016.3 |
| 20260507150046 | 16 | 360 | 3.2 | 8.0 | 0.00 | 0.00 | 0.00 | 85 | 1016.2 |
| 20260507144556 | 16 | 360 | 0.0 | 0.0 | 0.00 | 0.00 | 0.00 | 86 | 1016.1 |
| 20260507143045 | 16 | 360 | 0.0 | 0.0 | 0.00 | 0.00 | 0.00 | 87 | 1016.0 |
| 20260507141541 | 16 | 360 | 0.0 | 0.0 | 0.00 | 0.00 | 0.00 | 87 | 1015.9 |
| 20260507140041 | 15 | 360 | 0.0 | 0.0 | 0.00 | 0.00 | 0.00 | 88 | 1015.8 |
| 20260507134540 | 15 | 360 | 0.0 | 0.0 | 0.00 | 0.00 | 0.00 | 88 | 1015.7 |
| 20260507133043 | 15 | 360 | 0.0 | 0.0 | 0.00 | 0.00 | 0.00 | 88 | 1015.6 |
| 20260507131537 | 15 | 360 | 0.0 | 0.0 | 0.00 | 0.00 | 0.00 | 88 | 1015.7 |
| 20260507130041 | 15 | 360 | 0.0 | 0.0 | 0.00 | 0.00 | 0.00 | 89 | 1015.5 |
| 20260507124537 | 15 | 360 | 0.0 | 0.0 | 0.00 | 0.00 | 0.00 | 88 | 1015.4 |
| 20260507123041 | 15 | 360 | 0.0 | 0.0 | 0.00 | 0.00 | 0.00 | 88 | 1015.4 |
| 20260507121521 | 15 | 360 | 0.0 | 0.0 | 0.00 | 0.00 | 0.00 | 87 | 1015.4 |
| 20260507120019 | 16 | 360 | 0.0 | 0.0 | 0.00 | 0.00 | 0.00 | 87 | 1015.3 |
| 20260507114519 | 16 | 360 | 0.0 | 0.0 | 0.00 | 0.00 | 0.00 | 87 | 1015.2 |
| 20260507113025 | 16 | 360 | 0.0 | 0.0 | 0.00 | 0.00 | 0.00 | 87 | 1015.2 |
| 20260507111515 | 16 | 360 | 0.0 | 0.0 | 0.00 | 0.00 | 0.00 | 87 | 1015.3 |
| 20260507110014 | 16 | 360 | 0.0 | 0.0 | 0.00 | 0.00 | 0.00 | 88 | 1015.4 |
| 20260507104515 | 16 | 360 | 0.0 | 0.0 | 0.00 | 0.00 | 0.00 | 88 | 1015.4 |
| 20260507103011 | 16 | 360 | 0.0 | 0.0 | 0.00 | 0.00 | 0.00 | 89 | 1015.6 |
| 20260507101515 | 16 | 360 | 0.0 | 0.0 | 0.00 | 0.00 | 0.00 | 89 | 1015.7 |
| 20260507100009 | 15 | 360 | 0.0 | 0.0 | 0.00 | 0.00 | 0.00 | 89 | 1015.8 |
| 20260507094508 | 15 | 360 | 0.0 | 0.0 | 0.00 | 0.00 | 0.00 | 89 | 1015.8 |
| 20260507093009 | 15 | 360 | 0.0 | 0.0 | 0.00 | 0.00 | 0.00 | 88 | 1016.0 |
| 20260507091504 | 15 | 360 | 0.0 | 0.0 | 0.00 | 0.00 | 0.00 | 89 | 1016.0 |
| 20260507090003 | 16 | 360 | 0.0 | 0.0 | 0.00 | 0.00 | 0.00 | 89 | 1016.2 |
| 20260507084501 | 16 | 360 | 0.0 | 0.0 | 0.00 | 0.00 | 0.00 | 89 | 1016.4 |
| 20260507083059 | 16 | 360 | 0.0 | 0.0 | 0.00 | 0.00 | 0.00 | 89 | 1016.5 |
| 20260507081558 | 16 | 360 | 0.0 | 0.0 | 0.00 | 0.00 | 0.00 | 88 | 1016.6 |
| 20260507080026 | 16 | 360 | 0.0 | 0.0 | 0.00 | 0.00 | 0.00 | 88 | 1016.7 |
| 20260507074558 | 16 | 360 | 0.0 | 0.0 | 0.00 | 0.00 | 0.00 | 88 | 1016.7 |
| 20260507073054 | 16 | 360 | 0.0 | 0.0 | 0.00 | 0.00 | 0.00 | 87 | 1016.6 |
| 20260507071552 | 16 | 360 | 0.0 | 0.0 | 0.00 | 0.00 | 0.00 | 87 | 1016.7 |
| 20260507070054 | 16 | 360 | 0.0 | 0.0 | 0.00 | 0.00 | 0.00 | 87 | 1016.8 |
| 20260507064607 | 16 | 360 | 0.0 | 0.0 | 0.00 | 0.03 | 0.00 | 87 | 1016.9 |
| 20260507063054 | 16 | 360 | 0.0 | 0.0 | 0.00 | 0.03 | 0.00 | 87 | 1017.0 |
| 20260507061551 | 16 | 360 | 0.0 | 0.0 | 0.00 | 0.03 | 0.00 | 87 | 1017.0 |
| 20260507060051 | 16 | 360 | 0.0 | 0.0 | 0.00 | 0.03 | 0.00 | 87 | 1017.0 |
| 20260507054602 | 16 | 360 | 0.0 | 0.0 | 0.00 | 0.03 | 0.00 | 87 | 1016.9 |
| 20260507053049 | 16 | 360 | 3.2 | 8.0 | 0.00 | 0.03 | 0.00 | 87 | 1016.9 |
| 20260507051547 | 16 | 360 | 4.8 | 9.7 | 0.00 | 0.03 | 0.00 | 87 | 1016.9 |
| 20260507050046 | 16 | 360 | 3.2 | 9.7 | 0.00 | 0.03 | 0.00 | 87 | 1016.9 |
| 20260507044547 | 16 | 360 | 0.0 | 9.7 | 0.00 | 0.03 | 0.00 | 87 | 1016.9 |
| 20260507043046 | 16 | 360 | 3.2 | 8.0 | 0.00 | 0.03 | 0.00 | 87 | 1016.8 |
| 20260507041553 | 16 | 360 | 1.6 | 9.7 | 0.00 | 0.03 | 0.00 | 86 | 1016.7 |
| 20260507040044 | 16 | 360 | 6.4 | 9.7 | 0.00 | 0.03 | 0.00 | 86 | 1016.7 |
| 20260507034545 | 17 | 360 | 4.8 | 11.3 | 0.00 | 0.05 | 0.00 | 86 | 1016.5 |
| 20260507033045 | 17 | 360 | 8.0 | 12.9 | 0.00 | 0.05 | 0.00 | 85 | 1016.4 |
| 20260507031542 | 17 | 360 | 3.2 | 11.3 | 0.00 | 0.05 | 0.00 | 85 | 1016.3 |
| 20260507030042 | 17 | 360 | 3.2 | 11.3 | 0.00 | 0.05 | 0.00 | 84 | 1016.1 |
| 20260507024541 | 17 | 360 | 6.4 | 12.9 | 0.00 | 0.05 | 0.00 | 84 | 1016.0 |
| 20260507023041 | 17 | 360 | 6.4 | 12.9 | 0.00 | 0.05 | 0.00 | 84 | 1015.9 |
| 20260507021540 | 17 | 360 | 8.0 | 14.5 | 0.00 | 0.05 | 0.00 | 84 | 1015.9 |
| 20260507020039 | 17 | 360 | 4.8 | 14.5 | 0.00 | 0.05 | 0.00 | 84 | 1015.8 |
| 20260507014550 | 17 | 360 | 8.0 | 14.5 | 0.00 | 0.05 | 0.00 | 83 | 1015.7 |
| 20260507013047 | 18 | 360 | 6.4 | 14.5 | 0.00 | 0.05 | 0.00 | 81 | 1015.7 |
| 20260507011541 | 18 | 360 | 6.4 | 17.7 | 0.00 | 0.05 | 0.00 | 81 | 1015.7 |
| 20260507010036 | 18 | 360 | 8.0 | 14.5 | 0.00 | 0.05 | 0.00 | 80 | 1015.7 |
| 20260507004535 | 18 | 360 | 8.0 | 16.1 | 0.00 | 0.05 | 0.00 | 80 | 1015.6 |
| 20260507003037 | 18 | 296 | 8.0 | 16.1 | 0.00 | 0.05 | 0.00 | 78 | 1015.6 |
| 20260507001539 | 18 | 266 | 6.4 | 17.7 | 0.00 | 0.05 | 0.00 | 78 | 1015.5 |
| 20260507000033 | 18 | 301 | 9.7 | 16.1 | 0.00 | 0.05 | 0.00 | 77 | 1015.4 |
| 20260506234533 | 18 | 360 | 8.0 | 14.5 | 0.00 | 0.05 | 0.00 | 77 | 1015.4 |
| 20260506233032 | 18 | 360 | 8.0 | 17.7 | 0.00 | 0.05 | 0.00 | 76 | 1015.4 |
| 20260506231531 | 18 | 360 | 8.0 | 17.7 | 0.00 | 0.05 | 0.00 | 77 | 1015.5 |
| 20260506230031 | 18 | 360 | 9.7 | 19.3 | 0.00 | 0.05 | 0.00 | 76 | 1015.6 |
| 20260506224529 | 18 | 360 | 9.7 | 19.3 | 0.00 | 0.08 | 0.00 | 75 | 1015.7 |
| 20260506223027 | 18 | 360 | 8.0 | 17.7 | 0.00 | 0.08 | 0.00 | 75 | 1015.8 |
| 20260506221524 | 18 | 360 | 8.0 | 19.3 | 0.00 | 0.08 | 0.00 | 75 | 1016.0 |
| 20260506220024 | 18 | 360 | 9.7 | 17.7 | 0.00 | 0.08 | 0.00 | 73 | 1016.1 |
| 20260506214522 | 18 | 360 | 9.7 | 0.0 | 18.41 | 0.00 | 0.00 | 74 | 1016.2 |
| 20260506213022 | 19 | 360 | 8.0 | 17.7 | 0.00 | 0.10 | 0.00 | 72 | 1016.3 |
| 20260506211619 | 18 | 360 | 9.7 | 20.9 | 0.00 | 0.10 | 0.00 | 71 | 1016.4 |
| 20260506210018 | 19 | 360 | 8.0 | 17.7 | 0.00 | 0.10 | 0.00 | 69 | 1016.4 |
| 20260506204518 | 19 | 360 | 9.7 | 0.0 | 18.41 | 0.00 | 0.00 | 71 | 1016.4 |
| 20260506203018 | 18 | 360 | 11.3 | 20.9 | 0.00 | 0.13 | 0.00 | 70 | 1016.4 |
| 20260506201514 | 18 | 360 | 12.9 | 22.5 | 0.00 | 0.13 | 0.00 | 71 | 1016.6 |
| 20260506200014 | 18 | 360 | 6.4 | 19.3 | 0.00 | 0.13 | 0.00 | 71 | 1016.8 |
| 20260506194513 | 18 | 360 | 9.7 | 19.3 | 0.00 | 0.15 | 0.00 | 70 | 1016.9 |
| 20260506193010 | 19 | 360 | 6.4 | 17.7 | 0.00 | 0.15 | 0.00 | 72 | 1017.0 |
| 20260506191508 | 18 | 360 | 9.7 | 20.9 | 0.00 | 0.15 | 0.00 | 70 | 1017.2 |
| 20260506190007 | 18 | 360 | 8.0 | 19.3 | 0.00 | 0.15 | 0.00 | 71 | 1017.2 |
| 20260506184504 | 18 | 360 | 8.0 | 19.3 | 0.00 | 0.18 | 0.00 | 70 | 1017.3 |
| 20260506183005 | 18 | 360 | 8.0 | 14.5 | 0.00 | 0.18 | 0.00 | 71 | 1017.4 |